Regional Weather Roundup
Issued by NWS

Home | Current Version | Previous Version | Graphics & Text | Print | Product List | Glossary On
Versions: 1 2 3 4 5 6 7 8 9 10 11 12 13 14 15 16 17 18 19 20 21 22 23 24 25 26 27 28 29 30 31 32 33 34 35 36 37 38 39 40 41 42 43 44 45 46 47 48 49 50
000
ASUS43 KLMK 222302
RWRKY
KENTUCKY REGIONAL WEATHER ROUNDUP
NATIONAL WEATHER SERVICE LOUISVILLE KY
600 PM EST SAT NOV 22 2014

NOTE "FAIR" INDICATES FEW OR NO CLOUDS BELOW 12,000 FEET
WITH NO SIGNIFICANT WEATHER AND/OR OBSTRUCTIONS TO VISIBILITY.

KYZ001>023-026-027-061>063-070>075-230000-
WESTERN AND SOUTH CENTRAL KENTUCKY

CITY           SKY/WX    TMP DP  RH WIND       PRES   REMARKS
PADUCAH        MOCLDY    62  37  39 VRB5      30.04F
HENDERSON      MOCLDY    55  36  47 S10       30.04F
OWENSBORO      MOCLDY    58  38  47 S10G17    30.08F
HOPKINSVILLE   PTCLDY    61  33  34 S9        30.10R
BOWLING GREEN  PTCLDY    58  32  37 S7        30.12F
GLASGOW        NOT AVBL
$$

KYZ024-025-028>034-038-045-046-053-230000-
NORTH CENTRAL KENTUCKY

CITY           SKY/WX    TMP DP  RH WIND       PRES   REMARKS
LOUISVILLE/SDF CLEAR     58  34  40 S7        30.09F
LOUISVILLE/LOU CLEAR     58  33  39 S6        30.10F
FORT KNOX      PTCLDY    54  34  46 SE7       30.08F
$$

KYZ035>037-039>044-047>052-055>060-089>105-230000-
NORTHEAST KENTUCKY

CITY           SKY/WX    TMP DP  RH WIND       PRES   REMARKS
LEXINGTON      CLEAR     52  31  44 S10       30.13F
COVINGTON      MOCLDY    58  34  40 S13       30.09F
FRANKFORT      CLEAR     53  31  42 S7        30.11F
$$

KYZ054-064>069-076>088-106>120-230000-
SOUTHEAST KENTUCKY

CITY           SKY/WX    TMP DP  RH WIND       PRES   REMARKS
JACKSON        CLOUDY    53  23  31 CALM      30.18F
LONDON         CLEAR     54  28  36 S5        30.18F
SOMERSET       NOT AVBL
MIDDLESBORO    NOT AVBL
MONTICELLO     CLEAR     52  31  44 S10       30.19F
$$




USA.gov is the U.S. government's official web portal to all federal, state and local government web resources and services.